| time (UTC) | temp F | wind direction | speed MPH | gust MPH | rain 1hr in | rain 24hr in | rain mn in | humidity % | barometer mb |
| 20260902170523 | 69 | 0 | 0.0 | 5.0 | 0.00 | 0.01 | 0.01 | 98 | 1020.1 |
| 20260902165520 | 69 | 0 | 0.0 | 4.0 | 0.00 | 0.01 | 0.01 | 98 | 1019.9 |
| 20260902165020 | 69 | 157 | 0.0 | 6.0 | 0.00 | 0.01 | 0.01 | 98 | 1019.8 |
| 20260902164018 | 69 | 157 | 0.0 | 3.0 | 0.00 | 0.01 | 0.01 | 98 | 1019.6 |
| 20260902163518 | 69 | 0 | 0.0 | 4.0 | 0.00 | 0.01 | 0.01 | 98 | 1019.7 |
| 20260902162020 | 69 | 0 | 0.0 | 4.0 | 0.00 | 0.01 | 0.01 | 98 | 1019.6 |
| 20260902161020 | 69 | 0 | 0.0 | 4.0 | 0.00 | 0.01 | 0.01 | 98 | 1019.7 |
| 20260902160520 | 69 | 138 | 1.0 | 4.0 | 0.00 | 0.01 | 0.01 | 98 | 1019.5 |
| 20260902154020 | 68 | 0 | 0.0 | 3.0 | 0.00 | 0.01 | 0.01 | 98 | 1019.9 |
| 20260902153523 | 68 | 0 | 0.0 | 3.0 | 0.00 | 0.01 | 0.01 | 98 | 1019.8 |
| 20260902152520 | 68 | 202 | 0.0 | 2.0 | 0.00 | 0.01 | 0.01 | 98 | 1019.9 |
| 20260902152020 | 68 | 0 | 0.0 | 2.0 | 0.00 | 0.01 | 0.01 | 98 | 1019.7 |
| 20260902151020 | 68 | 0 | 0.0 | 2.0 | 0.00 | 0.01 | 0.01 | 98 | 1019.6 |
| 20260902150521 | 68 | 0 | 0.0 | 1.0 | 0.00 | 0.01 | 0.01 | 98 | 1019.7 |
| 20260902145520 | 68 | 0 | 0.0 | 2.0 | 0.00 | 0.01 | 0.01 | 98 | 1019.7 |
| 20260902145021 | 68 | 0 | 0.0 | 2.0 | 0.00 | 0.01 | 0.01 | 98 | 1019.8 |
| 20260902144018 | 68 | 0 | 0.0 | 3.0 | 0.00 | 0.01 | 0.01 | 98 | 1019.8 |
| 20260902143518 | 68 | 205 | 1.0 | 3.0 | 0.00 | 0.01 | 0.01 | 98 | 1020.0 |
| 20260902142518 | 68 | 0 | 1.0 | 5.0 | 0.00 | 0.01 | 0.01 | 98 | 1019.7 |
| 20260902142016 | 68 | 201 | 1.0 | 5.0 | 0.00 | 0.01 | 0.01 | 98 | 1019.9 |
| 20260902141020 | 68 | 0 | 0.0 | 2.0 | 0.00 | 0.01 | 0.01 | 98 | 1020.0 |
| 20260902135521 | 68 | 127 | 0.0 | 3.0 | 0.00 | 0.01 | 0.01 | 98 | 1020.2 |
| 20260902135020 | 68 | 0 | 0.0 | 3.0 | 0.00 | 0.01 | 0.01 | 98 | 1020.0 |
| 20260902134019 | 68 | 0 | 0.0 | 1.0 | 0.00 | 0.01 | 0.01 | 98 | 1019.9 |
| 20260902133521 | 68 | 0 | 0.0 | 1.0 | 0.00 | 0.01 | 0.01 | 98 | 1019.9 |
| 20260902132521 | 68 | 0 | 0.0 | 3.0 | 0.00 | 0.01 | 0.01 | 98 | 1019.9 |
| 20260902132022 | 68 | 0 | 0.0 | 3.0 | 0.00 | 0.01 | 0.01 | 98 | 1019.9 |
| 20260902131018 | 68 | 0 | 0.0 | 2.0 | 0.00 | 0.01 | 0.01 | 98 | 1019.7 |
| 20260902130522 | 68 | 0 | 0.0 | 2.0 | 0.00 | 0.01 | 0.01 | 98 | 1019.7 |
| 20260902125521 | 68 | 107 | 0.0 | 2.0 | 0.00 | 0.01 | 0.01 | 98 | 1019.7 |
| 20260902125025 | 68 | 0 | 0.0 | 2.0 | 0.00 | 0.01 | 0.01 | 98 | 1019.6 |
| 20260902124536 | 68 | 0 | 0.0 | 2.0 | 0.00 | 0.01 | 0.01 | 98 | 1019.6 |
| 20260902124016 | 68 | 87 | 0.0 | 3.0 | 0.00 | 0.01 | 0.01 | 98 | 1019.4 |
| 20260902122519 | 68 | 106 | 0.0 | 2.0 | 0.00 | 0.01 | 0.01 | 98 | 1019.2 |
| 20260902122018 | 68 | 107 | 0.0 | 1.0 | 0.00 | 0.01 | 0.01 | 98 | 1019.2 |
| 20260902121018 | 68 | 0 | 0.0 | 3.0 | 0.00 | 0.01 | 0.01 | 98 | 1019.2 |
| 20260902120520 | 68 | 0 | 0.0 | 3.0 | 0.00 | 0.01 | 0.01 | 98 | 1019.0 |
| 20260902115518 | 69 | 0 | 0.0 | 3.0 | 0.01 | 0.01 | 0.01 | 98 | 1019.1 |
| 20260902115019 | 69 | 0 | 0.0 | 2.0 | 0.01 | 0.01 | 0.01 | 98 | 1019.3 |
| 20260902114018 | 69 | 0 | 0.0 | 4.0 | 0.01 | 0.01 | 0.01 | 98 | 1019.0 |
| 20260902113521 | 69 | 165 | 0.0 | 4.0 | 0.01 | 0.01 | 0.01 | 98 | 1019.2 |
| 20260902112518 | 69 | 0 | 0.0 | 4.0 | 0.01 | 0.01 | 0.01 | 98 | 1018.9 |
| 20260902112018 | 69 | 0 | 0.0 | 2.0 | 0.01 | 0.01 | 0.01 | 98 | 1019.0 |
| 20260902111017 | 70 | 0 | 0.0 | 4.0 | 0.01 | 0.01 | 0.01 | 98 | 1018.9 |
| 20260902110519 | 70 | 223 | 2.0 | 4.0 | 0.01 | 0.01 | 0.01 | 98 | 1019.0 |
| 20260902105522 | 70 | 0 | 0.0 | 1.0 | 0.00 | 0.00 | 0.00 | 98 | 1019.1 |
| 20260902104020 | 70 | 0 | 0.0 | 0.0 | 0.00 | 0.00 | 0.00 | 98 | 1019.1 |
| 20260902103518 | 70 | 0 | 0.0 | 0.0 | 0.00 | 0.00 | 0.00 | 98 | 1019.1 |
| 20260902102522 | 70 | 0 | 0.0 | 0.0 | 0.00 | 0.00 | 0.00 | 98 | 1019.1 |
| 20260902102017 | 70 | 0 | 0.0 | 0.0 | 0.00 | 0.00 | 0.00 | 98 | 1019.2 |
| 20260902101016 | 70 | 0 | 0.0 | 1.0 | 0.00 | 0.00 | 0.00 | 98 | 1019.0 |
| 20260902100518 | 70 | 0 | 0.0 | 1.0 | 0.00 | 0.00 | 0.00 | 98 | 1019.0 |
| 20260902095521 | 70 | 0 | 0.0 | 0.0 | 0.00 | 0.00 | 0.00 | 98 | 1019.0 |
| 20260902095023 | 70 | 0 | 0.0 | 0.0 | 0.00 | 0.00 | 0.00 | 98 | 1019.0 |
| 20260902094018 | 70 | 0 | 0.0 | 2.0 | 0.00 | 0.00 | 0.00 | 98 | 1018.9 |
| 20260902093518 | 70 | 0 | 0.0 | 0.0 | 0.00 | 0.00 | 0.00 | 98 | 1018.9 |
| 20260902092519 | 70 | 0 | 0.0 | 1.0 | 0.00 | 0.00 | 0.00 | 98 | 1018.8 |
| 20260902092019 | 70 | 0 | 0.0 | 1.0 | 0.00 | 0.00 | 0.00 | 98 | 1018.8 |
| 20260902091016 | 70 | 0 | 0.0 | 0.0 | 0.00 | 0.00 | 0.00 | 98 | 1018.9 |
| 20260902090519 | 70 | 0 | 0.0 | 0.0 | 0.00 | 0.00 | 0.00 | 98 | 1018.8 |
| 20260902085518 | 70 | 0 | 0.0 | 0.0 | 0.00 | 0.00 | 0.00 | 98 | 1018.9 |
| 20260902085020 | 70 | 0 | 0.0 | 0.0 | 0.00 | 0.00 | 0.00 | 98 | 1018.9 |
| 20260902084018 | 70 | 0 | 0.0 | 1.0 | 0.00 | 0.00 | 0.00 | 98 | 1018.9 |
| 20260902083518 | 70 | 0 | 0.0 | 0.0 | 0.00 | 0.00 | 0.00 | 98 | 1018.9 |
| 20260902082519 | 70 | 0 | 0.0 | 0.0 | 0.00 | 0.00 | 0.00 | 98 | 1018.6 |
| 20260902082019 | 70 | 0 | 0.0 | 0.0 | 0.00 | 0.00 | 0.00 | 98 | 1018.6 |
| 20260902081018 | 70 | 0 | 0.0 | 0.0 | 0.00 | 0.00 | 0.00 | 98 | 1018.4 |
| 20260902080516 | 70 | 0 | 0.0 | 2.0 | 0.00 | 0.00 | 0.00 | 98 | 1018.5 |
| 20260902075518 | 70 | 0 | 0.0 | 0.0 | 0.00 | 0.00 | 0.00 | 98 | 1018.6 |
| 20260902075019 | 70 | 0 | 0.0 | 0.0 | 0.00 | 0.00 | 0.00 | 98 | 1018.7 |
| 20260902074019 | 70 | 0 | 0.0 | 0.0 | 0.00 | 0.00 | 0.00 | 98 | 1018.6 |
| 20260902073522 | 70 | 0 | 0.0 | 0.0 | 0.00 | 0.00 | 0.00 | 98 | 1018.5 |
| 20260902072518 | 70 | 0 | 0.0 | 0.0 | 0.00 | 0.00 | 0.00 | 98 | 1018.6 |
| 20260902072018 | 70 | 0 | 0.0 | 0.0 | 0.00 | 0.00 | 0.00 | 98 | 1018.5 |
| 20260902071018 | 70 | 0 | 0.0 | 0.0 | 0.00 | 0.00 | 0.00 | 98 | 1018.5 |
| 20260902070517 | 70 | 0 | 0.0 | 0.0 | 0.00 | 0.00 | 0.00 | 98 | 1018.6 |
| 20260902070034 | 70 | 0 | 0.0 | 0.0 | 0.00 | 0.00 | 0.00 | 98 | 1018.6 |
| 20260902065018 | 70 | 0 | 0.0 | 0.0 | 0.00 | 0.00 | 0.00 | 98 | 1018.7 |
| 20260902064018 | 70 | 0 | 0.0 | 0.0 | 0.00 | 0.00 | 0.00 | 98 | 1018.6 |
| 20260902063518 | 70 | 0 | 0.0 | 0.0 | 0.00 | 0.00 | 0.00 | 98 | 1018.7 |
| 20260902063036 | 70 | 0 | 0.0 | 0.0 | 0.00 | 0.00 | 0.00 | 98 | 1018.7 |
| 20260902062520 | 70 | 0 | 0.0 | 0.0 | 0.00 | 0.00 | 0.00 | 98 | 1018.7 |
| 20260902062021 | 70 | 0 | 0.0 | 0.0 | 0.00 | 0.00 | 0.00 | 98 | 1018.7 |
| 20260902061019 | 70 | 0 | 0.0 | 0.0 | 0.00 | 0.00 | 0.00 | 98 | 1018.7 |
| 20260902060521 | 70 | 0 | 0.0 | 0.0 | 0.00 | 0.00 | 0.00 | 98 | 1018.7 |
| 20260902055524 | 70 | 0 | 0.0 | 0.0 | 0.00 | 0.00 | 0.00 | 98 | 1018.6 |
| 20260902055019 | 70 | 0 | 0.0 | 0.0 | 0.00 | 0.00 | 0.00 | 98 | 1018.7 |
| 20260902054017 | 70 | 0 | 0.0 | 0.0 | 0.00 | 0.00 | 0.00 | 98 | 1018.6 |
| 20260902053516 | 70 | 0 | 0.0 | 0.0 | 0.00 | 0.00 | 0.00 | 98 | 1018.6 |
| 20260902052517 | 70 | 0 | 0.0 | 0.0 | 0.00 | 0.00 | 0.00 | 98 | 1018.7 |
| 20260902051018 | 69 | 0 | 0.0 | 0.0 | 0.00 | 0.00 | 0.00 | 98 | 1018.7 |
| 20260902050520 | 69 | 0 | 0.0 | 0.0 | 0.00 | 0.00 | 0.00 | 98 | 1018.7 |
| 20260902045519 | 69 | 0 | 0.0 | 0.0 | 0.00 | 0.00 | 0.00 | 97 | 1018.7 |
| 20260902045016 | 69 | 0 | 0.0 | 0.0 | 0.00 | 0.00 | 0.00 | 97 | 1018.5 |
| 20260902044017 | 69 | 0 | 0.0 | 0.0 | 0.00 | 0.00 | 0.00 | 97 | 1018.5 |
| 20260902043518 | 69 | 0 | 0.0 | 0.0 | 0.00 | 0.00 | 0.00 | 97 | 1018.5 |
| 20260902042519 | 70 | 0 | 0.0 | 0.0 | 0.00 | 0.00 | 0.00 | 97 | 1018.5 |
| 20260902042019 | 70 | 0 | 0.0 | 0.0 | 0.00 | 0.00 | 0.00 | 97 | 1018.3 |
| 20260902041020 | 69 | 0 | 0.0 | 0.0 | 0.00 | 0.00 | 0.00 | 97 | 1018.2 |
| 20260902040520 | 70 | 0 | 0.0 | 0.0 | 0.00 | 0.00 | 0.00 | 97 | 1018.2 |
| 20260902035519 | 70 | 0 | 0.0 | 0.0 | 0.00 | 0.00 | 0.00 | 97 | 1018.1 |
| 20260902035017 | 70 | 0 | 0.0 | 0.0 | 0.00 | 0.00 | 0.00 | 97 | 1018.1 |
| 20260902034018 | 70 | 0 | 0.0 | 0.0 | 0.00 | 0.00 | 0.00 | 97 | 1017.9 |
| 20260902033518 | 70 | 0 | 0.0 | 0.0 | 0.00 | 0.00 | 0.00 | 97 | 1017.9 |
| 20260902033037 | 70 | 0 | 0.0 | 0.0 | 0.00 | 0.00 | 0.00 | 97 | 1017.9 |
| 20260902032519 | 70 | 0 | 0.0 | 0.0 | 0.00 | 0.00 | 0.00 | 97 | 1017.8 |
| 20260902031018 | 70 | 0 | 0.0 | 0.0 | 0.00 | 0.00 | 0.00 | 97 | 1017.7 |
| 20260902030517 | 70 | 0 | 0.0 | 0.0 | 0.00 | 0.00 | 0.00 | 97 | 1017.7 |
| 20260902025520 | 70 | 0 | 0.0 | 0.0 | 0.00 | 0.00 | 0.00 | 97 | 1017.6 |
| 20260902025019 | 70 | 0 | 0.0 | 0.0 | 0.00 | 0.00 | 0.00 | 97 | 1017.5 |
| 20260902024016 | 70 | 0 | 0.0 | 0.0 | 0.00 | 0.00 | 0.00 | 97 | 1017.2 |
| 20260902023518 | 71 | 0 | 0.0 | 0.0 | 0.00 | 0.00 | 0.00 | 97 | 1017.2 |
| 20260902022521 | 71 | 0 | 0.0 | 0.0 | 0.00 | 0.00 | 0.00 | 97 | 1017.2 |
| 20260902022018 | 71 | 0 | 0.0 | 0.0 | 0.00 | 0.00 | 0.00 | 97 | 1017.2 |
| 20260902021018 | 71 | 0 | 0.0 | 0.0 | 0.00 | 0.00 | 0.00 | 97 | 1017.3 |
| 20260902020519 | 71 | 0 | 0.0 | 0.0 | 0.00 | 0.00 | 0.00 | 97 | 1017.2 |
| 20260902015518 | 71 | 0 | 0.0 | 0.0 | 0.00 | 0.00 | 0.00 | 96 | 1017.1 |
| 20260902015017 | 72 | 0 | 0.0 | 0.0 | 0.00 | 0.00 | 0.00 | 97 | 1016.9 |
| 20260902014016 | 72 | 0 | 0.0 | 0.0 | 0.00 | 0.00 | 0.00 | 97 | 1017.1 |
| 20260902013516 | 72 | 0 | 0.0 | 0.0 | 0.00 | 0.00 | 0.00 | 97 | 1017.2 |
| 20260902013038 | 72 | 0 | 0.0 | 0.0 | 0.00 | 0.00 | 0.00 | 97 | 1017.2 |
| 20260902012518 | 73 | 0 | 0.0 | 0.0 | 0.00 | 0.00 | 0.00 | 97 | 1017.2 |
| 20260902012016 | 73 | 0 | 0.0 | 0.0 | 0.00 | 0.00 | 0.00 | 97 | 1017.1 |
| 20260902005519 | 73 | 0 | 0.0 | 0.0 | 0.00 | 0.00 | 0.00 | 97 | 1017.1 |
| 20260902005020 | 73 | 0 | 0.0 | 0.0 | 0.00 | 0.00 | 0.00 | 97 | 1016.9 |
| 20260902004019 | 73 | 0 | 0.0 | 0.0 | 0.00 | 0.00 | 0.00 | 97 | 1016.8 |
| 20260902003520 | 73 | 0 | 0.0 | 0.0 | 0.00 | 0.00 | 0.00 | 97 | 1016.5 |
| 20260902002520 | 73 | 0 | 0.0 | 0.0 | 0.00 | 0.00 | 0.00 | 96 | 1016.3 |
| 20260902002017 | 73 | 0 | 0.0 | 0.0 | 0.00 | 0.00 | 0.00 | 96 | 1016.3 |
| 20260902001548 | 73 | 0 | 0.0 | 0.0 | 0.00 | 0.00 | 0.00 | 96 | 1015.9 |
| 20260902001016 | 73 | 0 | 0.0 | 0.0 | 0.00 | 0.00 | 0.00 | 96 | 1015.9 |
| 20260902000516 | 73 | 0 | 0.0 | 0.0 | 0.00 | 0.00 | 0.00 | 96 | 1016.0 |
| 20260901235519 | 73 | 0 | 0.0 | 1.0 | 0.00 | 0.00 | 0.00 | 96 | 1015.8 |
| 20260901235018 | 73 | 0 | 0.0 | 1.0 | 0.00 | 0.00 | 0.00 | 96 | 1015.8 |
| 20260901234018 | 73 | 0 | 0.0 | 0.0 | 0.00 | 0.00 | 0.00 | 96 | 1016.1 |
| 20260901233517 | 73 | 0 | 0.0 | 1.0 | 0.00 | 0.00 | 0.00 | 95 | 1015.9 |
| 20260901232518 | 73 | 0 | 0.0 | 1.0 | 0.00 | 0.00 | 0.00 | 95 | 1016.0 |
| 20260901232019 | 73 | 0 | 0.0 | 1.0 | 0.00 | 0.00 | 0.00 | 95 | 1016.2 |
| 20260901231535 | 74 | 0 | 0.0 | 1.0 | 0.00 | 0.00 | 0.00 | 94 | 1015.7 |
| 20260901231017 | 74 | 0 | 0.0 | 0.0 | 0.00 | 0.00 | 0.00 | 95 | 1015.6 |
| 20260901230519 | 74 | 0 | 0.0 | 0.0 | 0.00 | 0.00 | 0.00 | 94 | 1015.8 |
| 20260901225518 | 75 | 0 | 0.0 | 0.0 | 0.00 | 0.00 | 0.00 | 94 | 1016.0 |
| 20260901225025 | 75 | 0 | 0.0 | 0.0 | 0.00 | 0.00 | 0.00 | 93 | 1016.2 |
| 20260901224536 | 75 | 0 | 0.0 | 1.0 | 0.00 | 0.00 | 0.00 | 93 | 1016.3 |
| 20260901224020 | 75 | 0 | 0.0 | 1.0 | 0.00 | 0.00 | 0.00 | 92 | 1016.0 |
| 20260901223521 | 75 | 0 | 0.0 | 0.0 | 0.00 | 0.00 | 0.00 | 92 | 1016.1 |
| 20260901223039 | 76 | 0 | 0.0 | 0.0 | 0.00 | 0.00 | 0.00 | 90 | 1016.3 |
| 20260901222518 | 77 | 0 | 0.0 | 0.0 | 0.00 | 0.00 | 0.00 | 88 | 1016.2 |
| 20260901222020 | 77 | 0 | 0.0 | 1.0 | 0.00 | 0.00 | 0.00 | 87 | 1015.8 |
| 20260901221535 | 77 | 0 | 0.0 | 2.0 | 0.00 | 0.00 | 0.00 | 87 | 1015.6 |
| 20260901221018 | 78 | 0 | 0.0 | 3.0 | 0.00 | 0.00 | 0.00 | 85 | 1015.6 |
| 20260901220518 | 78 | 60 | 1.0 | 4.0 | 0.00 | 0.00 | 0.00 | 83 | 1015.4 |
| 20260901220104 | 79 | 60 | 1.0 | 5.0 | 0.00 | 0.00 | 0.00 | 82 | 1015.3 |
| 20260901215520 | 80 | 119 | 2.0 | 5.0 | 0.00 | 0.00 | 0.00 | 80 | 1015.2 |
| 20260901215021 | 81 | 24 | 2.0 | 8.0 | 0.00 | 0.00 | 0.00 | 80 | 1015.4 |
| 20260901214536 | 82 | 30 | 4.0 | 8.0 | 0.00 | 0.00 | 0.00 | 78 | 1015.4 |
| 20260901214020 | 82 | 27 | 1.0 | 6.0 | 0.00 | 0.00 | 0.00 | 78 | 1015.3 |
| 20260901213516 | 82 | 342 | 2.0 | 6.0 | 0.00 | 0.00 | 0.00 | 79 | 1015.4 |
| 20260901213035 | 82 | 26 | 3.0 | 6.0 | 0.00 | 0.00 | 0.00 | 78 | 1015.3 |
| 20260901212520 | 82 | 15 | 2.0 | 6.0 | 0.00 | 0.00 | 0.00 | 79 | 1015.3 |
| 20260901212019 | 81 | 25 | 1.0 | 6.0 | 0.00 | 0.00 | 0.00 | 80 | 1015.4 |
| 20260901211540 | 81 | 0 | 2.0 | 8.0 | 0.00 | 0.00 | 0.00 | 81 | 1015.4 |
| 20260901211020 | 81 | 323 | 3.0 | 8.0 | 0.00 | 0.00 | 0.00 | 80 | 1015.5 |
| 20260901210519 | 82 | 14 | 1.0 | 8.0 | 0.00 | 0.00 | 0.00 | 82 | 1015.4 |
| 20260901210056 | 81 | 319 | 4.0 | 8.0 | 0.00 | 0.00 | 0.00 | 81 | 1015.3 |
| 20260901205523 | 81 | 336 | 2.0 | 7.0 | 0.00 | 0.00 | 0.00 | 83 | 1015.3 |
| 20260901205018 | 81 | 348 | 2.0 | 9.0 | 0.00 | 0.00 | 0.00 | 82 | 1015.2 |
| 20260901204534 | 81 | 350 | 4.0 | 8.0 | 0.00 | 0.00 | 0.00 | 81 | 1015.0 |
| 20260901204018 | 81 | 347 | 2.0 | 7.0 | 0.00 | 0.00 | 0.00 | 82 | 1015.4 |
| 20260901203520 | 82 | 49 | 3.0 | 5.0 | 0.00 | 0.00 | 0.00 | 82 | 1015.4 |
| 20260901203038 | 81 | 355 | 3.0 | 5.0 | 0.00 | 0.00 | 0.00 | 84 | 1015.5 |
| 20260901202521 | 81 | 309 | 2.0 | 6.0 | 0.00 | 0.00 | 0.00 | 81 | 1015.5 |
| 20260901202020 | 81 | 27 | 3.0 | 6.0 | 0.00 | 0.00 | 0.00 | 83 | 1015.5 |
| 20260901201539 | 81 | 336 | 2.0 | 4.0 | 0.00 | 0.00 | 0.00 | 83 | 1015.6 |
| 20260901201020 | 81 | 346 | 2.0 | 6.0 | 0.00 | 0.00 | 0.00 | 84 | 1015.7 |
| 20260901200521 | 81 | 333 | 2.0 | 7.0 | 0.00 | 0.00 | 0.00 | 83 | 1015.7 |
| 20260901200036 | 81 | 327 | 3.0 | 7.0 | 0.00 | 0.00 | 0.00 | 82 | 1015.6 |
| 20260901195517 | 81 | 309 | 3.0 | 7.0 | 0.00 | 0.00 | 0.00 | 82 | 1015.7 |
| 20260901195021 | 82 | 290 | 3.0 | 7.0 | 0.00 | 0.00 | 0.00 | 82 | 1015.8 |
| 20260901194546 | 81 | 327 | 2.0 | 6.0 | 0.00 | 0.00 | 0.00 | 84 | 1015.8 |
| 20260901194018 | 80 | 246 | 2.0 | 8.0 | 0.00 | 0.00 | 0.00 | 84 | 1015.8 |
| 20260901193519 | 80 | 288 | 2.0 | 8.0 | 0.00 | 0.00 | 0.00 | 83 | 1015.9 |
| 20260901193038 | 80 | 275 | 3.0 | 8.0 | 0.00 | 0.00 | 0.00 | 83 | 1015.8 |
| 20260901192517 | 80 | 276 | 3.0 | 8.0 | 0.00 | 0.00 | 0.00 | 84 | 1015.8 |
| 20260901192017 | 80 | 194 | 4.0 | 8.0 | 0.00 | 0.00 | 0.00 | 86 | 1015.7 |
| 20260901191537 | 79 | 178 | 2.0 | 5.0 | 0.00 | 0.00 | 0.00 | 85 | 1015.8 |
| 20260901191021 | 79 | 292 | 1.0 | 7.0 | 0.00 | 0.00 | 0.00 | 86 | 1015.8 |
| 20260901190516 | 79 | 184 | 2.0 | 7.0 | 0.00 | 0.00 | 0.00 | 86 | 1015.9 |
| 20260901190034 | 79 | 251 | 3.0 | 7.0 | 0.00 | 0.00 | 0.00 | 85 | 1015.8 |
| 20260901185525 | 79 | 263 | 2.0 | 7.0 | 0.00 | 0.00 | 0.00 | 85 | 1016.0 |
| 20260901185021 | 79 | 229 | 2.0 | 7.0 | 0.00 | 0.00 | 0.00 | 85 | 1015.9 |
| 20260901184535 | 79 | 254 | 2.0 | 9.0 | 0.00 | 0.00 | 0.00 | 84 | 1015.8 |
| 20260901184021 | 79 | 281 | 4.0 | 9.0 | 0.00 | 0.00 | 0.00 | 85 | 1015.9 |
| 20260901183517 | 80 | 0 | 2.0 | 7.0 | 0.00 | 0.00 | 0.00 | 85 | 1015.9 |
| 20260901183035 | 79 | 225 | 3.0 | 8.0 | 0.00 | 0.00 | 0.00 | 88 | 1015.9 |
| 20260901182519 | 79 | 254 | 2.0 | 8.0 | 0.00 | 0.00 | 0.00 | 85 | 1015.8 |
| 20260901182020 | 78 | 327 | 2.0 | 6.0 | 0.00 | 0.00 | 0.00 | 87 | 1015.8 |
| 20260901181540 | 78 | 267 | 0.0 | 6.0 | 0.00 | 0.00 | 0.00 | 88 | 1015.8 |
| 20260901181016 | 77 | 196 | 3.0 | 6.0 | 0.00 | 0.00 | 0.00 | 88 | 1015.9 |
| 20260901180519 | 77 | 211 | 2.0 | 5.0 | 0.00 | 0.00 | 0.00 | 88 | 1015.9 |
| 20260901180035 | 78 | 0 | 1.0 | 4.0 | 0.00 | 0.00 | 0.00 | 89 | 1015.9 |
| 20260901175520 | 77 | 0 | 2.0 | 6.0 | 0.00 | 0.00 | 0.00 | 88 | 1015.8 |
| 20260901175018 | 77 | 221 | 1.0 | 6.0 | 0.00 | 0.00 | 0.00 | 89 | 1015.7 |
| 20260901174537 | 77 | 199 | 2.0 | 5.0 | 0.00 | 0.00 | 0.00 | 89 | 1015.7 |
| 20260901174020 | 77 | 209 | 1.0 | 7.0 | 0.00 | 0.00 | 0.00 | 90 | 1015.7 |
| 20260901173519 | 77 | 207 | 2.0 | 7.0 | 0.00 | 0.00 | 0.00 | 89 | 1015.8 |
| 20260901173038 | 77 | 175 | 2.0 | 7.0 | 0.00 | 0.00 | 0.00 | 90 | 1015.8 |
| 20260901172519 | 76 | 205 | 3.0 | 7.0 | 0.00 | 0.00 | 0.00 | 91 | 1015.8 |
| 20260901172019 | 76 | 199 | 2.0 | 7.0 | 0.00 | 0.00 | 0.00 | 91 | 1015.7 |
| 20260901171546 | 76 | 208 | 1.0 | 6.0 | 0.00 | 0.00 | 0.00 | 92 | 1015.7 |
| 20260901171018 | 75 | 196 | 2.0 | 6.0 | 0.00 | 0.00 | 0.00 | 91 | 1015.8 |